iso_date,epoch_date,Year,Hour,Min,DOY,POS_DOY,Lat,Lon,BP,Ts,Ta,has_bp,has_ts,has_ta,BuoyID,Buoy_Type,Buoy_Owner,Logistics,Hemisphere
2016-01-01T10:59:31Z,1451645971,2016,11,0,1.458,1.485,-51.05167,-22.97667,1003.2,9.79,-999.0,yes,yes,no,132727,BD2A3,AOML,AGULHAS,South
2016-01-01T12:00:00Z,1451649600,2016,12,0,1.5,1.485,-51.05278,-22.97806,1004.3,4.21,-999.0,yes,yes,no,132727,BD2A3,AOML,AGULHAS,South
2016-01-01T13:00:28Z,1451653229,2016,13,0,1.542,1.485,-51.05278,-22.97806,1004.5,4.21,-999.0,yes,yes,no,132727,BD2A3,AOML,AGULHAS,South
2016-01-01T13:59:31Z,1451656771,2016,14,0,1.583,1.64,-51.03972,-22.99278,1004.8,4.21,-999.0,yes,yes,no,132727,BD2A3,AOML,AGULHAS,South
2016-01-01T15:00:00Z,1451660400,2016,15,0,1.625,1.64,-51.03972,-22.99278,1005.0,4.25,-999.0,yes,yes,no,132727,BD2A3,AOML,AGULHAS,South
2016-01-01T16:00:28Z,1451664029,2016,16,0,1.667,1.68,-51.03,-22.94806,1005.1,4.21,-999.0,yes,yes,no,132727,BD2A3,AOML,AGULHAS,South
2016-01-01T16:59:31Z,1451667571,2016,17,0,1.708,1.708,-51.03611,-22.97722,1005.5,4.21,-999.0,yes,yes,no,132727,BD2A3,AOML,AGULHAS,South
2016-01-01T18:00:00Z,1451671200,2016,18,0,1.75,1.747,-51.02806,-22.98722,1005.9,4.21,-999.0,yes,yes,no,132727,BD2A3,AOML,AGULHAS,South
2016-01-01T19:00:28Z,1451674829,2016,19,0,1.792,1.781,-51.03556,-22.97583,1006.4,4.21,-999.0,yes,yes,no,132727,BD2A3,AOML,AGULHAS,South
2016-01-01T19:59:31Z,1451678371,2016,20,0,1.833,1.831,-51.02889,-22.95444,1006.8,4.21,-999.0,yes,yes,no,132727,BD2A3,AOML,AGULHAS,South
2016-01-01T21:00:00Z,1451682000,2016,21,0,1.875,1.852,-51.02222,-22.94694,1007.2,4.21,-999.0,yes,yes,no,132727,BD2A3,AOML,AGULHAS,South
2016-01-01T22:00:28Z,1451685629,2016,22,0,1.917,1.902,-51.01472,-22.9425,1007.6,4.21,-999.0,yes,yes,no,132727,BD2A3,AOML,AGULHAS,South
2016-01-01T22:59:31Z,1451689171,2016,23,0,1.958,1.902,-51.01472,-22.9425,1008.2,4.18,-999.0,yes,yes,no,132727,BD2A3,AOML,AGULHAS,South
2016-01-02T00:00:00Z,1451692800,2016,0,0,2.0,2.049,-50.98667,-22.93222,1008.3,4.18,-999.0,yes,yes,no,132727,BD2A3,AOML,AGULHAS,South
2016-01-02T01:00:28Z,1451696429,2016,1,0,2.042,2.049,-50.98667,-22.93222,1008.7,4.18,-999.0,yes,yes,no,132727,BD2A3,AOML,AGULHAS,South
2016-01-02T01:59:31Z,1451699971,2016,2,0,2.083,2.049,-50.98667,-22.93222,1008.9,4.18,-999.0,yes,yes,no,132727,BD2A3,AOML,AGULHAS,South
2016-01-02T03:00:00Z,1451703600,2016,3,0,2.125,2.124,-50.97194,-22.93889,1009.0,4.18,-999.0,yes,yes,no,132727,BD2A3,AOML,AGULHAS,South
2016-01-02T04:00:28Z,1451707229,2016,4,0,2.167,2.171,-50.96861,-22.93111,1009.0,4.18,-999.0,yes,yes,no,132727,BD2A3,AOML,AGULHAS,South
2016-01-02T04:59:31Z,1451710771,2016,5,0,2.208,2.193,-50.96333,-22.92833,1009.0,4.18,-999.0,yes,yes,no,132727,BD2A3,AOML,AGULHAS,South
2016-01-02T06:00:00Z,1451714400,2016,6,0,2.25,2.24,-50.96111,-22.93583,1009.0,4.18,-999.0,yes,yes,no,132727,BD2A3,AOML,AGULHAS,South
2016-01-02T07:00:28Z,1451718029,2016,7,0,2.292,2.309,-50.95667,-22.91361,1009.5,4.18,-999.0,yes,yes,no,132727,BD2A3,AOML,AGULHAS,South
2016-01-02T07:59:31Z,1451721571,2016,8,0,2.333,2.332,-50.96306,-22.90139,1009.7,4.21,-999.0,yes,yes,no,132727,BD2A3,AOML,AGULHAS,South
2016-01-02T09:00:00Z,1451725200,2016,9,0,2.375,2.367,-50.955,-22.90694,1010.1,4.18,-999.0,yes,yes,no,132727,BD2A3,AOML,AGULHAS,South
2016-01-02T10:00:28Z,1451728829,2016,10,0,2.417,2.402,-50.95278,-22.88722,1010.1,4.21,-999.0,yes,yes,no,132727,BD2A3,AOML,AGULHAS,South
2016-01-02T10:59:31Z,1451732371,2016,11,0,2.458,2.468,-50.9425,-22.88222,1009.6,4.25,-999.0,yes,yes,no,132727,BD2A3,AOML,AGULHAS,South
2016-01-02T12:00:00Z,1451736000,2016,12,0,2.5,2.468,-50.9425,-22.88222,1009.5,4.28,-999.0,yes,yes,no,132727,BD2A3,AOML,AGULHAS,South
2016-01-02T13:00:28Z,1451739629,2016,13,0,2.542,2.468,-50.9425,-22.88222,1009.2,4.28,-999.0,yes,yes,no,132727,BD2A3,AOML,AGULHAS,South
2016-01-02T13:59:31Z,1451743171,2016,14,0,2.583,2.631,-50.91833,-22.84222,1008.8,4.28,-999.0,yes,yes,no,132727,BD2A3,AOML,AGULHAS,South
2016-01-02T15:00:00Z,1451746800,2016,15,0,2.625,2.631,-50.91833,-22.84222,1008.7,4.31,-999.0,yes,yes,no,132727,BD2A3,AOML,AGULHAS,South
2016-01-02T16:00:28Z,1451750429,2016,16,0,2.667,2.699,-50.90444,-22.83333,1008.7,4.28,-999.0,yes,yes,no,132727,BD2A3,AOML,AGULHAS,South
2016-01-02T16:59:31Z,1451753971,2016,17,0,2.708,2.699,-50.90444,-22.83333,1008.3,4.28,-999.0,yes,yes,no,132727,BD2A3,AOML,AGULHAS,South
2016-01-02T18:00:00Z,1451757600,2016,18,0,2.75,2.771,-50.90083,-22.82472,1007.9,4.28,-999.0,yes,yes,no,132727,BD2A3,AOML,AGULHAS,South
2016-01-02T19:00:28Z,1451761229,2016,19,0,2.792,2.797,-50.89389,-22.83528,1007.9,4.25,-999.0,yes,yes,no,132727,BD2A3,AOML,AGULHAS,South
2016-01-02T19:59:31Z,1451764771,2016,20,0,2.833,2.844,-50.88944,-22.81472,1008.1,4.25,-999.0,yes,yes,no,132727,BD2A3,AOML,AGULHAS,South
2016-01-02T21:00:00Z,1451768400,2016,21,0,2.875,2.867,-50.88778,-22.83417,1008.2,4.25,-999.0,yes,yes,no,132727,BD2A3,AOML,AGULHAS,South
2016-01-02T22:00:28Z,1451772029,2016,22,0,2.917,2.917,-50.88694,-22.79,1008.7,4.25,-999.0,yes,yes,no,132727,BD2A3,AOML,AGULHAS,South
2016-01-02T22:59:31Z,1451775571,2016,23,0,2.958,2.944,-50.8875,-22.79389,1009.2,4.25,-999.0,yes,yes,no,132727,BD2A3,AOML,AGULHAS,South
2016-01-03T00:00:00Z,1451779200,2016,0,0,3.0,3.015,-50.88583,-22.7775,1009.2,4.25,-999.0,yes,yes,no,132727,BD2A3,AOML,AGULHAS,South
2016-01-03T01:00:28Z,1451782829,2016,1,0,3.042,3.042,-50.86861,-22.77722,1009.4,4.25,-999.0,yes,yes,no,132727,BD2A3,AOML,AGULHAS,South
2016-01-03T01:59:31Z,1451786371,2016,2,0,3.083,3.116,-50.87556,-22.75861,1009.4,4.25,-999.0,yes,yes,no,132727,BD2A3,AOML,AGULHAS,South
2016-01-03T03:00:00Z,1451790000,2016,3,0,3.125,3.116,-50.87556,-22.75861,1009.3,4.25,-999.0,yes,yes,no,132727,BD2A3,AOML,AGULHAS,South
2016-01-03T04:00:28Z,1451793629,2016,4,0,3.167,3.183,-50.87139,-22.73278,1009.4,4.21,-999.0,yes,yes,no,132727,BD2A3,AOML,AGULHAS,South
2016-01-03T04:59:31Z,1451797171,2016,5,0,3.208,3.222,-50.85778,-22.72444,1010.0,4.21,-999.0,yes,yes,no,132727,BD2A3,AOML,AGULHAS,South
2016-01-03T06:00:00Z,1451800800,2016,6,0,3.25,3.256,-50.86056,-22.71472,1010.6,4.21,-999.0,yes,yes,no,132727,BD2A3,AOML,AGULHAS,South
2016-01-03T07:00:28Z,1451804429,2016,7,0,3.292,3.292,-50.85278,-22.70056,1010.9,4.21,-999.0,yes,yes,no,132727,BD2A3,AOML,AGULHAS,South
2016-01-03T07:59:31Z,1451807971,2016,8,0,3.333,3.36,-50.84111,-22.69556,1011.7,4.21,-999.0,yes,yes,no,132727,BD2A3,AOML,AGULHAS,South
2016-01-03T09:00:00Z,1451811600,2016,9,0,3.375,3.372,-50.84694,-22.70444,1012.4,4.21,-999.0,yes,yes,no,132727,BD2A3,AOML,AGULHAS,South
2016-01-03T10:00:28Z,1451815229,2016,10,0,3.417,3.425,-50.83194,-22.72056,1013.0,4.21,-999.0,yes,yes,no,132727,BD2A3,AOML,AGULHAS,South
2016-01-03T10:59:31Z,1451818771,2016,11,0,3.458,3.455,-50.82833,-22.67167,1013.4,4.21,-999.0,yes,yes,no,132727,BD2A3,AOML,AGULHAS,South
2016-01-03T12:00:00Z,1451822400,2016,12,0,3.5,3.494,-50.83333,-22.68361,1013.7,4.21,-999.0,yes,yes,no,132727,BD2A3,AOML,AGULHAS,South
2016-01-03T13:00:28Z,1451826029,2016,13,0,3.542,3.494,-50.83333,-22.68361,1014.1,4.25,-999.0,yes,yes,no,132727,BD2A3,AOML,AGULHAS,South
2016-01-03T13:59:31Z,1451829571,2016,14,0,3.583,3.626,-50.82639,-22.65194,1014.2,4.25,-999.0,yes,yes,no,132727,BD2A3,AOML,AGULHAS,South
2016-01-03T15:00:00Z,1451833200,2016,15,0,3.625,3.626,-50.82639,-22.65194,1014.6,4.25,-999.0,yes,yes,no,132727,BD2A3,AOML,AGULHAS,South
2016-01-03T16:00:28Z,1451836829,2016,16,0,3.667,3.691,-50.83194,-22.65639,1015.1,4.25,-999.0,yes,yes,no,132727,BD2A3,AOML,AGULHAS,South
2016-01-03T16:59:31Z,1451840371,2016,17,0,3.708,3.708,-50.82139,-22.6225,1015.5,4.25,-999.0,yes,yes,no,132727,BD2A3,AOML,AGULHAS,South
2016-01-03T18:00:00Z,1451844000,2016,18,0,3.75,3.763,-50.81861,-22.62583,1016.1,4.25,-999.0,yes,yes,no,132727,BD2A3,AOML,AGULHAS,South
2016-01-03T19:00:28Z,1451847629,2016,19,0,3.792,3.798,-50.81167,-22.61361,1016.6,4.25,-999.0,yes,yes,no,132727,BD2A3,AOML,AGULHAS,South
2016-01-03T19:59:31Z,1451851171,2016,20,0,3.833,3.837,-50.80722,-22.60167,1017.2,4.25,-999.0,yes,yes,no,132727,BD2A3,AOML,AGULHAS,South
2016-01-03T21:00:00Z,1451854800,2016,21,0,3.875,3.867,-50.80611,-22.59639,1017.6,4.25,-999.0,yes,yes,no,132727,BD2A3,AOML,AGULHAS,South
2016-01-03T22:00:28Z,1451858429,2016,22,0,3.917,3.909,-50.80333,-22.5825,1018.2,4.25,-999.0,yes,yes,no,132727,BD2A3,AOML,AGULHAS,South
2016-01-03T22:59:31Z,1451861971,2016,23,0,3.958,3.965,-50.79389,-22.56472,1018.7,4.25,-999.0,yes,yes,no,132727,BD2A3,AOML,AGULHAS,South
2016-01-04T00:00:00Z,1451865600,2016,0,0,4.0,3.999,-50.79,-22.57194,1018.9,4.21,-999.0,yes,yes,no,132727,BD2A3,AOML,AGULHAS,South
2016-01-04T01:00:28Z,1451869229,2016,1,0,4.042,4.035,-50.79167,-22.56639,1019.2,4.21,-999.0,yes,yes,no,132727,BD2A3,AOML,AGULHAS,South
2016-01-04T01:59:31Z,1451872771,2016,2,0,4.083,4.035,-50.79167,-22.56639,1019.3,4.21,-999.0,yes,yes,no,132727,BD2A3,AOML,AGULHAS,South
2016-01-04T03:00:00Z,1451876400,2016,3,0,4.125,4.176,-50.77944,-22.52667,1019.5,4.21,-999.0,yes,yes,no,132727,BD2A3,AOML,AGULHAS,South
2016-01-04T04:00:28Z,1451880029,2016,4,0,4.167,4.176,-50.77944,-22.52667,1019.5,4.21,-999.0,yes,yes,no,132727,BD2A3,AOML,AGULHAS,South
2016-01-04T04:59:31Z,1451883571,2016,5,0,4.208,4.206,-50.77528,-22.51889,1019.7,4.21,-999.0,yes,yes,no,132727,BD2A3,AOML,AGULHAS,South
2016-01-04T06:00:00Z,1451887200,2016,6,0,4.25,4.244,-50.77889,-22.50417,1019.8,4.21,-999.0,yes,yes,no,132727,BD2A3,AOML,AGULHAS,South
2016-01-04T07:00:28Z,1451890829,2016,7,0,4.292,4.279,-50.78,-22.48694,1020.1,4.21,-999.0,yes,yes,no,132727,BD2A3,AOML,AGULHAS,South
2016-01-04T07:59:31Z,1451894371,2016,8,0,4.333,4.34,-50.77167,-22.47,1020.1,4.21,-999.0,yes,yes,no,132727,BD2A3,AOML,AGULHAS,South
2016-01-04T09:00:00Z,1451898000,2016,9,0,4.375,4.372,-50.76861,-22.45722,1020.4,4.21,-999.0,yes,yes,no,132727,BD2A3,AOML,AGULHAS,South
2016-01-04T10:00:28Z,1451901629,2016,10,0,4.417,4.417,-50.77028,-22.46,1020.5,4.21,-999.0,yes,yes,no,132727,BD2A3,AOML,AGULHAS,South
2016-01-04T10:59:31Z,1451905171,2016,11,0,4.458,4.442,-50.76639,-22.44361,1020.6,4.21,-999.0,yes,yes,no,132727,BD2A3,AOML,AGULHAS,South
2016-01-04T12:00:00Z,1451908800,2016,12,0,4.5,4.513,-50.76111,-22.42667,1020.8,4.25,-999.0,yes,yes,no,132727,BD2A3,AOML,AGULHAS,South
2016-01-04T13:00:28Z,1451912429,2016,13,0,4.542,4.513,-50.76111,-22.42667,1020.7,4.28,-999.0,yes,yes,no,132727,BD2A3,AOML,AGULHAS,South
2016-01-04T13:59:31Z,1451915971,2016,14,0,4.583,4.616,-50.74111,-22.3825,1020.8,4.31,-999.0,yes,yes,no,132727,BD2A3,AOML,AGULHAS,South
2016-01-04T15:00:00Z,1451919600,2016,15,0,4.625,4.616,-50.74111,-22.3825,1020.6,4.31,-999.0,yes,yes,no,132727,BD2A3,AOML,AGULHAS,South
2016-01-04T16:00:28Z,1451923229,2016,16,0,4.667,4.685,-50.74222,-22.34389,1020.4,4.35,-999.0,yes,yes,no,132727,BD2A3,AOML,AGULHAS,South
2016-01-04T16:59:31Z,1451926771,2016,17,0,4.708,4.685,-50.74222,-22.34389,1020.6,4.35,-999.0,yes,yes,no,132727,BD2A3,AOML,AGULHAS,South
2016-01-04T18:00:00Z,1451930400,2016,18,0,4.75,4.756,-50.74278,-22.33111,1020.0,4.35,-999.0,yes,yes,no,132727,BD2A3,AOML,AGULHAS,South
2016-01-04T21:00:00Z,1451941200,2016,21,0,4.875,4.851,-50.74,-22.29083,1018.5,4.31,-999.0,yes,yes,no,132727,BD2A3,AOML,AGULHAS,South
2016-01-04T22:00:28Z,1451944829,2016,22,0,4.917,4.918,-50.73917,-22.26806,1018.0,4.31,-999.0,yes,yes,no,132727,BD2A3,AOML,AGULHAS,South
2016-01-04T22:59:31Z,1451948371,2016,23,0,4.958,4.947,-50.74139,-22.24083,1017.6,4.31,-999.0,yes,yes,no,132727,BD2A3,AOML,AGULHAS,South
2016-01-05T00:00:00Z,1451952000,2016,0,0,5.0,5.018,-50.74806,-22.22056,1016.6,4.28,-999.0,yes,yes,no,132727,BD2A3,AOML,AGULHAS,South
2016-01-05T01:00:28Z,1451955629,2016,1,0,5.042,5.026,-50.74722,-22.21278,1015.8,4.28,-999.0,yes,yes,no,132727,BD2A3,AOML,AGULHAS,South
2016-01-05T01:59:31Z,1451959171,2016,2,0,5.083,5.1,-50.73806,-22.17861,1014.7,4.28,-999.0,yes,yes,no,132727,BD2A3,AOML,AGULHAS,South
2016-01-05T03:00:00Z,1451962800,2016,3,0,5.125,5.1,-50.73806,-22.17861,1013.2,4.28,-999.0,yes,yes,no,132727,BD2A3,AOML,AGULHAS,South
2016-01-05T04:00:28Z,1451966429,2016,4,0,5.167,5.168,-50.74694,-22.13528,1012.0,4.28,-999.0,yes,yes,no,132727,BD2A3,AOML,AGULHAS,South
2016-01-05T04:59:31Z,1451969971,2016,5,0,5.208,5.189,-50.74861,-22.1275,1011.3,4.28,-999.0,yes,yes,no,132727,BD2A3,AOML,AGULHAS,South
2016-01-05T06:00:00Z,1451973600,2016,6,0,5.25,5.237,-50.74528,-22.10611,1010.6,4.28,-999.0,yes,yes,no,132727,BD2A3,AOML,AGULHAS,South
2016-01-05T07:00:28Z,1451977229,2016,7,0,5.292,5.312,-50.73972,-22.06639,1010.0,4.28,-999.0,yes,yes,no,132727,BD2A3,AOML,AGULHAS,South
2016-01-05T07:59:31Z,1451980771,2016,8,0,5.333,5.326,-50.74083,-22.05472,1009.4,4.28,-999.0,yes,yes,no,132727,BD2A3,AOML,AGULHAS,South
2016-01-05T09:00:00Z,1451984400,2016,9,0,5.375,5.358,-50.74056,-22.03389,1008.7,4.28,-999.0,yes,yes,no,132727,BD2A3,AOML,AGULHAS,South
2016-01-05T10:00:28Z,1451988029,2016,10,0,5.417,5.426,-50.7325,-21.99722,1007.9,4.28,-999.0,yes,yes,no,132727,BD2A3,AOML,AGULHAS,South
2016-01-05T10:59:31Z,1451991571,2016,11,0,5.458,5.426,-50.7325,-21.99722,1007.3,4.25,-999.0,yes,yes,no,132727,BD2A3,AOML,AGULHAS,South
2016-01-05T12:00:00Z,1451995200,2016,12,0,5.5,5.497,-50.73278,-21.99389,1006.5,4.25,-999.0,yes,yes,no,132727,BD2A3,AOML,AGULHAS,South
2016-01-05T13:00:28Z,1451998829,2016,13,0,5.542,5.497,-50.73278,-21.99389,1005.2,4.25,-999.0,yes,yes,no,132727,BD2A3,AOML,AGULHAS,South
2016-01-05T13:59:31Z,1452002371,2016,14,0,5.583,5.497,-50.73278,-21.99389,1003.6,4.25,-999.0,yes,yes,no,132727,BD2A3,AOML,AGULHAS,South
2016-01-05T15:00:00Z,1452006000,2016,15,0,5.625,5.675,-50.74611,-21.89917,1002.4,4.21,-999.0,yes,yes,no,132727,BD2A3,AOML,AGULHAS,South
2016-01-05T16:00:28Z,1452009629,2016,16,0,5.667,5.675,-50.74611,-21.89917,1001.5,4.25,-999.0,yes,yes,no,132727,BD2A3,AOML,AGULHAS,South
2016-01-05T16:59:31Z,1452013171,2016,17,0,5.708,5.728,-50.74972,-21.86917,1000.8,4.25,-999.0,yes,yes,no,132727,BD2A3,AOML,AGULHAS,South
2016-01-05T18:00:00Z,1452016800,2016,18,0,5.75,5.747,-50.75278,-21.86361,1000.6,4.25,-999.0,yes,yes,no,132727,BD2A3,AOML,AGULHAS,South
2016-01-05T19:00:28Z,1452020429,2016,19,0,5.792,5.801,-50.74639,-21.85167,1001.1,4.25,-999.0,yes,yes,no,132727,BD2A3,AOML,AGULHAS,South
2016-01-05T19:59:31Z,1452023971,2016,20,0,5.833,5.833,-50.74694,-21.82472,1002.0,4.21,-999.0,yes,yes,no,132727,BD2A3,AOML,AGULHAS,South
2016-01-05T21:00:00Z,1452027600,2016,21,0,5.875,5.871,-50.74583,-21.83083,1003.4,4.21,-999.0,yes,yes,no,132727,BD2A3,AOML,AGULHAS,South
2016-01-05T22:00:28Z,1452031229,2016,22,0,5.917,5.901,-50.74111,-21.80194,1004.6,4.21,-999.0,yes,yes,no,132727,BD2A3,AOML,AGULHAS,South
2016-01-05T22:59:31Z,1452034771,2016,23,0,5.958,5.974,-50.73583,-21.79,1005.7,4.21,-999.0,yes,yes,no,132727,BD2A3,AOML,AGULHAS,South
2016-01-06T00:00:00Z,1452038400,2016,0,0,6.0,6.005,-50.73694,-21.7875,1006.8,4.21,-999.0,yes,yes,no,132727,BD2A3,AOML,AGULHAS,South
2016-01-06T01:00:28Z,1452042029,2016,1,0,6.042,6.04,-50.73361,-21.77528,1007.6,4.21,-999.0,yes,yes,no,132727,BD2A3,AOML,AGULHAS,South
2016-01-06T01:59:31Z,1452045571,2016,2,0,6.083,6.092,-50.74028,-21.7725,1008.5,4.18,-999.0,yes,yes,no,132727,BD2A3,AOML,AGULHAS,South
2016-01-06T03:00:00Z,1452049200,2016,3,0,6.125,6.092,-50.74028,-21.7725,1008.8,4.18,-999.0,yes,yes,no,132727,BD2A3,AOML,AGULHAS,South
2016-01-06T04:00:28Z,1452052829,2016,4,0,6.167,6.162,-50.74083,-21.74889,1009.1,4.18,-999.0,yes,yes,no,132727,BD2A3,AOML,AGULHAS,South
2016-01-06T04:59:31Z,1452056371,2016,5,0,6.208,6.228,-50.75333,-21.72611,1009.4,4.18,-999.0,yes,yes,no,132727,BD2A3,AOML,AGULHAS,South
2016-01-06T06:00:00Z,1452060000,2016,6,0,6.25,6.239,-50.75167,-21.7275,1009.5,4.18,-999.0,yes,yes,no,132727,BD2A3,AOML,AGULHAS,South
2016-01-06T07:00:28Z,1452063629,2016,7,0,6.292,6.304,-50.75972,-21.69111,1009.8,4.18,-999.0,yes,yes,no,132727,BD2A3,AOML,AGULHAS,South
2016-01-06T07:59:31Z,1452067171,2016,8,0,6.333,6.343,-50.76361,-21.65833,1010.2,4.18,-999.0,yes,yes,no,132727,BD2A3,AOML,AGULHAS,South
2016-01-06T09:00:00Z,1452070800,2016,9,0,6.375,6.375,-50.76722,-21.68,1010.0,4.18,-999.0,yes,yes,no,132727,BD2A3,AOML,AGULHAS,South
2016-01-06T10:00:28Z,1452074429,2016,10,0,6.417,6.412,-50.76444,-21.64611,1009.4,4.18,-999.0,yes,yes,no,132727,BD2A3,AOML,AGULHAS,South
2016-01-06T10:59:31Z,1452077971,2016,11,0,6.458,6.451,-50.76556,-21.63778,1008.7,4.21,-999.0,yes,yes,no,132727,BD2A3,AOML,AGULHAS,South
2016-01-06T12:00:00Z,1452081600,2016,12,0,6.5,6.483,-50.76194,-21.62806,1008.0,4.25,-999.0,yes,yes,no,132727,BD2A3,AOML,AGULHAS,South
2016-01-06T13:00:28Z,1452085229,2016,13,0,6.542,6.483,-50.76194,-21.62806,1007.4,4.28,-999.0,yes,yes,no,132727,BD2A3,AOML,AGULHAS,South
2016-01-06T13:59:31Z,1452088771,2016,14,0,6.583,6.669,-50.76417,-21.56528,1006.3,4.28,-999.0,yes,yes,no,132727,BD2A3,AOML,AGULHAS,South
2016-01-06T15:00:00Z,1452092400,2016,15,0,6.625,6.669,-50.76417,-21.56528,1004.9,4.28,-999.0,yes,yes,no,132727,BD2A3,AOML,AGULHAS,South
2016-01-06T16:00:28Z,1452096029,2016,16,0,6.667,6.669,-50.76417,-21.56528,1003.2,4.25,-999.0,yes,yes,no,132727,BD2A3,AOML,AGULHAS,South
2016-01-06T16:59:31Z,1452099571,2016,17,0,6.708,6.71,-50.76944,-21.55056,1001.4,4.28,-999.0,yes,yes,no,132727,BD2A3,AOML,AGULHAS,South
2016-01-06T18:00:00Z,1452103200,2016,18,0,6.75,6.746,-50.76917,-21.55694,1000.0,4.28,-999.0,yes,yes,no,132727,BD2A3,AOML,AGULHAS,South
2016-01-06T19:00:28Z,1452106829,2016,19,0,6.792,6.81,-50.77361,-21.56056,998.3,4.28,-999.0,yes,yes,no,132727,BD2A3,AOML,AGULHAS,South
2016-01-06T19:59:31Z,1452110371,2016,20,0,6.833,6.849,-50.78278,-21.54278,996.9,4.28,-999.0,yes,yes,no,132727,BD2A3,AOML,AGULHAS,South
2016-01-06T21:00:00Z,1452114000,2016,21,0,6.875,6.883,-50.79389,-21.5275,994.8,4.28,-999.0,yes,yes,no,132727,BD2A3,AOML,AGULHAS,South
2016-01-06T22:00:28Z,1452117629,2016,22,0,6.917,6.921,-50.79833,-21.49639,993.5,4.28,-999.0,yes,yes,no,132727,BD2A3,AOML,AGULHAS,South
2016-01-06T22:59:31Z,1452121171,2016,23,0,6.958,6.956,-50.7975,-21.49833,991.9,4.28,-999.0,yes,yes,no,132727,BD2A3,AOML,AGULHAS,South
2016-01-07T00:00:00Z,1452124800,2016,0,0,7.0,6.988,-50.80667,-21.49444,990.8,4.28,-999.0,yes,yes,no,132727,BD2A3,AOML,AGULHAS,South
2016-01-07T01:00:28Z,1452128429,2016,1,0,7.042,7.059,-50.81417,-21.46611,989.6,4.28,-999.0,yes,yes,no,132727,BD2A3,AOML,AGULHAS,South
2016-01-07T01:59:31Z,1452131971,2016,2,0,7.083,7.084,-50.8075,-21.45833,989.6,4.28,-999.0,yes,yes,no,132727,BD2A3,AOML,AGULHAS,South
2016-01-07T03:00:00Z,1452135600,2016,3,0,7.125,7.154,-50.80667,-21.44472,989.8,4.28,-999.0,yes,yes,no,132727,BD2A3,AOML,AGULHAS,South
2016-01-07T04:00:28Z,1452139229,2016,4,0,7.167,7.154,-50.80667,-21.44472,991.2,4.28,-999.0,yes,yes,no,132727,BD2A3,AOML,AGULHAS,South
2016-01-07T04:59:31Z,1452142771,2016,5,0,7.208,7.22,-50.80222,-21.42556,992.2,4.28,-999.0,yes,yes,no,132727,BD2A3,AOML,AGULHAS,South
2016-01-07T06:00:00Z,1452146400,2016,6,0,7.25,7.223,-50.80361,-21.43028,993.7,4.28,-999.0,yes,yes,no,132727,BD2A3,AOML,AGULHAS,South
2016-01-07T07:00:28Z,1452150029,2016,7,0,7.292,7.292,-50.8025,-21.41833,995.0,4.28,-999.0,yes,yes,no,132727,BD2A3,AOML,AGULHAS,South
2016-01-07T07:59:31Z,1452153571,2016,8,0,7.333,7.33,-50.80667,-21.3975,995.8,4.25,-999.0,yes,yes,no,132727,BD2A3,AOML,AGULHAS,South
2016-01-07T09:00:00Z,1452157200,2016,9,0,7.375,7.362,-50.80472,-21.39833,996.6,4.25,-999.0,yes,yes,no,132727,BD2A3,AOML,AGULHAS,South
2016-01-07T10:00:28Z,1452160829,2016,10,0,7.417,7.421,-50.80444,-21.39778,997.7,4.25,-999.0,yes,yes,no,132727,BD2A3,AOML,AGULHAS,South
2016-01-07T10:59:31Z,1452164371,2016,11,0,7.458,7.466,-50.80139,-21.38083,998.3,4.25,-999.0,yes,yes,no,132727,BD2A3,AOML,AGULHAS,South
2016-01-07T12:00:00Z,1452168000,2016,12,0,7.5,7.466,-50.80139,-21.38083,999.3,4.28,-999.0,yes,yes,no,132727,BD2A3,AOML,AGULHAS,South
2016-01-07T13:00:28Z,1452171629,2016,13,0,7.542,7.466,-50.80139,-21.38083,1000.1,4.28,-999.0,yes,yes,no,132727,BD2A3,AOML,AGULHAS,South
2016-01-07T13:59:31Z,1452175171,2016,14,0,7.583,7.663,-50.80722,-21.34167,1000.4,4.28,-999.0,yes,yes,no,132727,BD2A3,AOML,AGULHAS,South
2016-01-07T15:00:00Z,1452178800,2016,15,0,7.625,7.663,-50.80722,-21.34167,1000.6,4.31,-999.0,yes,yes,no,132727,BD2A3,AOML,AGULHAS,South
2016-01-07T16:00:28Z,1452182429,2016,16,0,7.667,7.663,-50.80722,-21.34167,1000.6,4.31,-999.0,yes,yes,no,132727,BD2A3,AOML,AGULHAS,South
2016-01-07T16:59:31Z,1452185971,2016,17,0,7.708,7.729,-50.80889,-21.31639,1000.4,4.31,-999.0,yes,yes,no,132727,BD2A3,AOML,AGULHAS,South
2016-01-07T18:00:00Z,1452189600,2016,18,0,7.75,7.731,-50.80972,-21.30861,999.9,4.31,-999.0,yes,yes,no,132727,BD2A3,AOML,AGULHAS,South
2016-01-07T19:00:28Z,1452193229,2016,19,0,7.792,7.801,-50.80917,-21.30361,1000.1,4.31,-999.0,yes,yes,no,132727,BD2A3,AOML,AGULHAS,South
2016-01-07T19:59:31Z,1452196771,2016,20,0,7.833,7.803,-50.81472,-21.29139,999.4,4.31,-999.0,yes,yes,no,132727,BD2A3,AOML,AGULHAS,South
2016-01-07T21:00:00Z,1452200400,2016,21,0,7.875,7.874,-50.81694,-21.28833,998.2,4.31,-999.0,yes,yes,no,132727,BD2A3,AOML,AGULHAS,South
2016-01-07T22:00:28Z,1452204029,2016,22,0,7.917,7.904,-50.815,-21.25861,997.5,4.31,-999.0,yes,yes,no,132727,BD2A3,AOML,AGULHAS,South
2016-01-07T22:59:31Z,1452207571,2016,23,0,7.958,7.947,-50.82194,-21.25917,996.9,4.31,-999.0,yes,yes,no,132727,BD2A3,AOML,AGULHAS,South
2016-01-08T00:00:00Z,1452211200,2016,0,0,8.0,8.01,-50.82722,-21.24389,996.4,4.31,-999.0,yes,yes,no,132727,BD2A3,AOML,AGULHAS,South
2016-01-08T01:00:28Z,1452214829,2016,1,0,8.042,8.047,-50.83583,-21.24389,996.0,4.31,-999.0,yes,yes,no,132727,BD2A3,AOML,AGULHAS,South
2016-01-08T01:59:31Z,1452218371,2016,2,0,8.083,8.072,-50.82806,-21.23361,996.1,4.31,-999.0,yes,yes,no,132727,BD2A3,AOML,AGULHAS,South
2016-01-08T03:00:00Z,1452222000,2016,3,0,8.125,8.144,-50.82917,-21.2075,996.7,4.28,-999.0,yes,yes,no,132727,BD2A3,AOML,AGULHAS,South
2016-01-08T04:00:28Z,1452225629,2016,4,0,8.167,8.147,-50.83333,-21.21167,997.1,4.28,-999.0,yes,yes,no,132727,BD2A3,AOML,AGULHAS,South
2016-01-08T04:59:31Z,1452229171,2016,5,0,8.208,8.206,-50.83139,-21.20333,997.7,4.28,-999.0,yes,yes,no,132727,BD2A3,AOML,AGULHAS,South
2016-01-08T06:00:00Z,1452232800,2016,6,0,8.25,8.274,-50.83194,-21.18111,998.4,4.28,-999.0,yes,yes,no,132727,BD2A3,AOML,AGULHAS,South
2016-01-08T07:00:28Z,1452236429,2016,7,0,8.292,8.287,-50.83417,-21.18222,999.2,4.28,-999.0,yes,yes,no,132727,BD2A3,AOML,AGULHAS,South
2016-01-08T07:59:31Z,1452239971,2016,8,0,8.333,8.344,-50.83028,-21.17194,999.7,4.28,-999.0,yes,yes,no,132727,BD2A3,AOML,AGULHAS,South
2016-01-08T09:00:00Z,1452243600,2016,9,0,8.375,8.383,-50.83583,-21.14944,1000.2,4.28,-999.0,yes,yes,no,132727,BD2A3,AOML,AGULHAS,South
2016-01-08T10:00:28Z,1452247229,2016,10,0,8.417,8.383,-50.83583,-21.14944,1000.5,4.31,-999.0,yes,yes,no,132727,BD2A3,AOML,AGULHAS,South
2016-01-08T10:59:31Z,1452250771,2016,11,0,8.458,8.453,-50.83444,-21.14639,1001.0,4.35,-999.0,yes,yes,no,132727,BD2A3,AOML,AGULHAS,South
2016-01-08T12:00:00Z,1452254400,2016,12,0,8.5,8.493,-50.84,-21.13222,1001.2,4.35,-999.0,yes,yes,no,132727,BD2A3,AOML,AGULHAS,South
2016-01-08T13:00:28Z,1452258029,2016,13,0,8.542,8.493,-50.84,-21.13222,1001.5,4.38,-999.0,yes,yes,no,132727,BD2A3,AOML,AGULHAS,South
2016-01-08T13:59:31Z,1452261571,2016,14,0,8.583,8.655,-50.84,-21.10028,1002.1,4.42,-999.0,yes,yes,no,132727,BD2A3,AOML,AGULHAS,South
2016-01-08T15:00:00Z,1452265200,2016,15,0,8.625,8.655,-50.84,-21.10028,1002.1,4.42,-999.0,yes,yes,no,132727,BD2A3,AOML,AGULHAS,South
2016-01-08T16:00:28Z,1452268829,2016,16,0,8.667,8.655,-50.84,-21.10028,1002.3,4.45,-999.0,yes,yes,no,132727,BD2A3,AOML,AGULHAS,South
2016-01-08T16:59:31Z,1452272371,2016,17,0,8.708,8.724,-50.8425,-21.08306,1002.1,4.48,-999.0,yes,yes,no,132727,BD2A3,AOML,AGULHAS,South
2016-01-08T18:00:00Z,1452276000,2016,18,0,8.75,8.737,-50.83972,-21.06944,1002.1,4.48,-999.0,yes,yes,no,132727,BD2A3,AOML,AGULHAS,South
2016-01-08T19:00:28Z,1452279629,2016,19,0,8.792,8.797,-50.84583,-21.06917,1002.1,4.48,-999.0,yes,yes,no,132727,BD2A3,AOML,AGULHAS,South
2016-01-08T19:59:31Z,1452283171,2016,20,0,8.833,8.851,-50.84583,-21.05139,1001.9,4.45,-999.0,yes,yes,no,132727,BD2A3,AOML,AGULHAS,South
2016-01-08T21:00:00Z,1452286800,2016,21,0,8.875,8.874,-50.84833,-21.05861,1001.5,4.45,-999.0,yes,yes,no,132727,BD2A3,AOML,AGULHAS,South